Location: Axtheid
(49.6213°N, 11.8205°E)
Time: 18:20:52
(UTC+00:00)

Envisat - Pass Details

Date: 05 October 2022
Orbit: 763 x 765 km, 98.2° (Epoch: 30 November)

Event Time Altitude Azimuth Distance (km) Brightness Sun altitude
Rises 02:42:37 0° 23° (NNE) 3,246 6.9 -25.4°
Reaches altitude 10° 02:45:16 10° 35° (NE) 2,314 6.2 -25.0°
Maximum altitude 02:49:36 28° 93° (E) 1,428 5.0 -24.4°
Drops below altitude 10° 02:53:54 10° 151° (SSE) 2,298 5.5 -23.8°
Sets 02:56:30 0° 164° (SSE) 3,219 6.2 -23.4°
